EDW150 EDDM-LSZH

Flight info

Callsign EDW150
Flight time N/A
Altitude 22000
Route MERSI5S MERSI Y100 MOMUK Y112 RAVED L856 NEGRA
Aircraft A320/M-SDE3FGHIRWY/LB1

Departure

Time 2026-05-07 15:14
Airport Munich Airport (EDDM)

Arrival

Time N/A
Airport Zürich Airport (LSZH)
Time Latitude Longitude Altitude Speed Heading
2026-05-07 14:35 48.35226 11.77695 1462 ft 0 kts 262°
2026-05-07 15:02 48.35226 11.77697 1466 ft 2 kts 262°
2026-05-07 15:02 48.35231 11.77735 1456 ft 4 kts 254°
2026-05-07 15:03 48.35240 11.77772 1458 ft 4 kts 234°
2026-05-07 15:03 48.35258 11.77795 1456 ft 4 kts 182°
2026-05-07 15:03 48.35268 11.77794 1456 ft 0 kts 174°
2026-05-07 15:05 48.35266 11.77795 1456 ft 1 kts 174°
2026-05-07 15:06 48.35244 11.77798 1459 ft 3 kts 174°
2026-05-07 15:06 48.35204 11.77804 1466 ft 8 kts 174°
2026-05-07 15:06 48.35151 11.77812 1460 ft 7 kts 174°
2026-05-07 15:06 48.35096 11.77823 1463 ft 9 kts 172°
2026-05-07 15:07 48.35022 11.77837 1466 ft 12 kts 173°
2026-05-07 15:07 48.34944 11.77850 1462 ft 11 kts 174°
2026-05-07 15:07 48.34873 11.77862 1464 ft 10 kts 173°
2026-05-07 15:07 48.34811 11.77873 1465 ft 9 kts 173°
2026-05-07 15:08 48.34756 11.77883 1466 ft 8 kts 174°
2026-05-07 15:08 48.34706 11.77891 1464 ft 8 kts 173°
2026-05-07 15:08 48.34669 11.77979 1466 ft 14 kts 88°
2026-05-07 15:08 48.34679 11.78128 1466 ft 15 kts 84°
2026-05-07 15:09 48.34692 11.78291 1467 ft 17 kts 83°
2026-05-07 15:09 48.34707 11.78484 1467 ft 20 kts 83°
2026-05-07 15:09 48.34724 11.78703 1464 ft 22 kts 84°
2026-05-07 15:09 48.34742 11.78939 1465 ft 21 kts 84°
2026-05-07 15:10 48.34758 11.79156 1467 ft 22 kts 83°
2026-05-07 15:10 48.34776 11.79385 1463 ft 21 kts 84°
2026-05-07 15:10 48.34791 11.79595 1467 ft 20 kts 82°
2026-05-07 15:10 48.34807 11.79802 1467 ft 20 kts 84°
2026-05-07 15:11 48.34824 11.80015 1467 ft 21 kts 83°
2026-05-07 15:11 48.34840 11.80219 1459 ft 16 kts 84°
2026-05-07 15:11 48.34850 11.80362 1464 ft 13 kts 84°
2026-05-07 15:11 48.34835 11.80488 1464 ft 12 kts 119°
2026-05-07 15:12 48.34770 11.80555 1462 ft 11 kts 164°
2026-05-07 15:12 48.34695 11.80567 1466 ft 12 kts 176°
2026-05-07 15:12 48.34614 11.80555 1461 ft 12 kts 206°
2026-05-07 15:12 48.34556 11.80480 1464 ft 11 kts 222°
2026-05-07 15:13 48.34516 11.80430 1463 ft 6 kts 212°
2026-05-07 15:13 48.34481 11.80414 1463 ft 5 kts 200°
2026-05-07 15:13 48.34471 11.80386 1463 ft 2 kts 263°
2026-05-07 15:13 48.34466 11.80309 1469 ft 29 kts 264°
2026-05-07 15:14 48.34413 11.79601 1465 ft 105 kts 263°
2026-05-07 15:14 48.34307 11.78205 1474 ft 160 kts 264°
2026-05-07 15:14 48.34197 11.76544 2129 ft 159 kts 268°
2026-05-07 15:14 48.34090 11.74897 2912 ft 158 kts 267°
2026-05-07 15:15 48.33980 11.73257 3663 ft 158 kts 266°
2026-05-07 15:15 48.33854 11.71608 4322 ft 160 kts 265°
2026-05-07 15:15 48.33710 11.69922 4854 ft 170 kts 264°
2026-05-07 15:15 48.33558 11.68034 5163 ft 192 kts 264°
2026-05-07 15:16 48.33380 11.65925 5463 ft 218 kts 264°
2026-05-07 15:16 48.33189 11.63589 6153 ft 227 kts 264°
2026-05-07 15:16 48.33013 11.61182 6836 ft 242 kts 264°
2026-05-07 15:16 48.32828 11.58565 7415 ft 259 kts 264°
2026-05-07 15:17 48.32635 11.55843 8339 ft 264 kts 264°
2026-05-07 15:17 48.32437 11.53080 9321 ft 268 kts 264°
2026-05-07 15:17 48.32112 11.50315 10245 ft 271 kts 250°
2026-05-07 15:17 48.31349 11.47702 11090 ft 274 kts 246°
2026-05-07 15:18 48.30542 11.45097 12002 ft 277 kts 246°
2026-05-07 15:18 48.29719 11.42468 12651 ft 290 kts 245°
2026-05-07 15:18 48.28825 11.39626 12938 ft 313 kts 245°
2026-05-07 15:18 48.27860 11.36561 13188 ft 334 kts 245°
2026-05-07 15:19 48.26851 11.33359 13793 ft 343 kts 245°
2026-05-07 15:19 48.25822 11.30093 14453 ft 347 kts 245°
2026-05-07 15:19 48.24785 11.26793 15110 ft 352 kts 246°
2026-05-07 15:19 48.23734 11.23450 15768 ft 356 kts 246°
2026-05-07 15:20 48.22671 11.20073 16423 ft 360 kts 246°
2026-05-07 15:20 48.21596 11.16659 17071 ft 365 kts 246°
2026-05-07 15:20 48.20505 11.13201 17730 ft 369 kts 246°
2026-05-07 15:20 48.19402 11.09706 18355 ft 373 kts 246°
2026-05-07 15:21 48.18286 11.06180 18938 ft 377 kts 246°
2026-05-07 15:21 48.17156 11.02617 19526 ft 380 kts 246°
2026-05-07 15:21 48.16016 10.99025 20121 ft 383 kts 246°
2026-05-07 15:21 48.14864 10.95403 20701 ft 387 kts 246°
2026-05-07 15:22 48.13700 10.91753 21267 ft 390 kts 246°
2026-05-07 15:22 48.12522 10.88071 21759 ft 394 kts 246°
2026-05-07 15:22 48.11331 10.84352 21989 ft 397 kts 246°
2026-05-07 15:22 48.10137 10.80626 22027 ft 397 kts 246°
2026-05-07 15:23 48.08958 10.76951 22031 ft 397 kts 246°
2026-05-07 15:23 48.07763 10.73228 22028 ft 397 kts 246°
2026-05-07 15:23 48.06567 10.69504 22029 ft 397 kts 246°
2026-05-07 15:23 48.05375 10.65788 22031 ft 397 kts 246°
2026-05-07 15:24 48.04178 10.62066 22030 ft 397 kts 245°
2026-05-07 15:24 48.02977 10.58347 22024 ft 397 kts 245°
2026-05-07 15:24 48.01770 10.54621 22027 ft 397 kts 245°
2026-05-07 15:24 48.00566 10.50906 22025 ft 397 kts 245°
2026-05-07 15:25 47.99362 10.47192 22025 ft 397 kts 245°
2026-05-07 15:25 47.98157 10.43483 22027 ft 398 kts 245°
2026-05-07 15:25 47.96950 10.39770 22027 ft 398 kts 245°
2026-05-07 15:25 47.95742 10.36059 22017 ft 397 kts 245°
2026-05-07 15:26 47.94532 10.32352 22024 ft 398 kts 245°
2026-05-07 15:26 47.93317 10.28646 22031 ft 398 kts 245°
2026-05-07 15:26 47.92119 10.24982 22031 ft 397 kts 245°
2026-05-07 15:26 47.90913 10.21287 22031 ft 397 kts 245°
2026-05-07 15:27 47.89703 10.17582 22028 ft 397 kts 245°
2026-05-07 15:27 47.88494 10.13898 22030 ft 397 kts 245°
2026-05-07 15:27 47.87279 10.10209 22032 ft 397 kts 245°
2026-05-07 15:27 47.86060 10.06522 22030 ft 396 kts 244°
2026-05-07 15:28 47.84845 10.02845 21848 ft 396 kts 245°
2026-05-07 15:28 47.83629 9.99168 21584 ft 394 kts 245°
2026-05-07 15:28 47.82422 9.95510 21327 ft 393 kts 245°
2026-05-07 15:28 47.81217 9.91867 21062 ft 392 kts 244°
2026-05-07 15:29 47.80029 9.88284 20809 ft 390 kts 244°
2026-05-07 15:29 47.78815 9.84629 20539 ft 389 kts 244°
2026-05-07 15:29 47.77631 9.81073 20285 ft 388 kts 244°
2026-05-07 15:29 47.76433 9.77490 20071 ft 387 kts 244°
2026-05-07 15:30 47.75239 9.73918 20010 ft 386 kts 244°
2026-05-07 15:30 47.74056 9.70340 20031 ft 387 kts 246°
2026-05-07 15:30 47.73177 9.66561 20029 ft 386 kts 257°
2026-05-07 15:30 47.72791 9.62626 20030 ft 386 kts 267°
2026-05-07 15:31 47.72689 9.58641 20031 ft 386 kts 268°
2026-05-07 15:31 47.72581 9.54653 20031 ft 387 kts 268°
2026-05-07 15:31 47.72464 9.50660 20032 ft 386 kts 267°
2026-05-07 15:31 47.72133 9.46707 20032 ft 387 kts 258°
2026-05-07 15:32 47.71357 9.42892 20033 ft 387 kts 249°
2026-05-07 15:32 47.70157 9.39307 20034 ft 388 kts 239°
2026-05-07 15:32 47.68579 9.36068 20028 ft 389 kts 232°
2026-05-07 15:32 47.66868 9.32961 20030 ft 389 kts 232°
2026-05-07 15:33 47.65156 9.29855 20029 ft 389 kts 232°
2026-05-07 15:33 47.63445 9.26753 20022 ft 389 kts 232°
2026-05-07 15:33 47.61741 9.23666 19894 ft 385 kts 232°
2026-05-07 15:33 47.60200 9.20455 19329 ft 381 kts 241°
2026-05-07 15:34 47.59136 9.16881 18806 ft 378 kts 252°
2026-05-07 15:34 47.58554 9.13114 18271 ft 375 kts 260°
2026-05-07 15:34 47.58090 9.09325 17680 ft 372 kts 259°
2026-05-07 15:34 47.57822 9.05588 17128 ft 369 kts 270°
2026-05-07 15:35 47.58097 9.01770 16582 ft 367 kts 282°
2026-05-07 15:35 47.58884 8.98256 16050 ft 365 kts 291°
2026-05-07 15:35 47.59844 8.94783 15518 ft 362 kts 291°
2026-05-07 15:35 47.60788 8.91338 14984 ft 359 kts 290°
2026-05-07 15:36 47.61720 8.87915 14475 ft 357 kts 290°
2026-05-07 15:36 47.62536 8.84464 13966 ft 352 kts 281°
2026-05-07 15:36 47.62804 8.80888 13454 ft 347 kts 268°
2026-05-07 15:36 47.62499 8.77376 12921 ft 342 kts 255°
2026-05-07 15:37 47.61695 8.74084 12356 ft 339 kts 247°
2026-05-07 15:37 47.60784 8.70882 11929 ft 333 kts 247°
2026-05-07 15:37 47.59921 8.67831 11792 ft 308 kts 247°
2026-05-07 15:37 47.59288 8.64951 11584 ft 285 kts 259°
2026-05-07 15:38 47.59216 8.62063 11065 ft 279 kts 276°
2026-05-07 15:38 47.59712 8.59287 10692 ft 279 kts 291°
2026-05-07 15:38 47.60681 8.56844 10276 ft 280 kts 307°
2026-05-07 15:38 47.62057 8.54804 9833 ft 280 kts 315°
2026-05-07 15:39 47.63487 8.52865 9337 ft 278 kts 315°
2026-05-07 15:39 47.64907 8.50923 8851 ft 276 kts 315°
2026-05-07 15:39 47.66316 8.48985 8441 ft 275 kts 315°
2026-05-07 15:39 47.67710 8.47061 8062 ft 273 kts 315°
2026-05-07 15:40 47.69103 8.45141 7665 ft 272 kts 315°
2026-05-07 15:40 47.70485 8.43242 7269 ft 271 kts 315°
2026-05-07 15:40 47.71869 8.41342 6853 ft 270 kts 316°
2026-05-07 15:40 47.73206 8.39402 6452 ft 267 kts 307°
2026-05-07 15:41 47.73972 8.36949 6077 ft 262 kts 278°
2026-05-07 15:41 47.73860 8.34335 5992 ft 247 kts 252°
2026-05-07 15:41 47.73046 8.32211 5996 ft 231 kts 229°
2026-05-07 15:41 47.71982 8.30518 5994 ft 216 kts 229°
2026-05-07 15:42 47.70927 8.29077 6009 ft 204 kts 216°
2026-05-07 15:42 47.69676 8.28217 6013 ft 197 kts 198°
2026-05-07 15:42 47.68320 8.27989 6000 ft 197 kts 179°
2026-05-07 15:42 47.66976 8.28413 5997 ft 200 kts 160°
2026-05-07 15:43 47.65787 8.29469 5988 ft 203 kts 141°
2026-05-07 15:43 47.64737 8.30901 5809 ft 205 kts 138°
2026-05-07 15:43 47.63706 8.32332 5561 ft 202 kts 138°
2026-05-07 15:43 47.62673 8.33759 5295 ft 203 kts 139°
2026-05-07 15:44 47.61637 8.35187 5021 ft 203 kts 138°
2026-05-07 15:44 47.60613 8.36596 4754 ft 204 kts 138°
2026-05-07 15:44 47.59579 8.38018 4478 ft 202 kts 137°
2026-05-07 15:44 47.58564 8.39414 4198 ft 194 kts 138°
2026-05-07 15:45 47.57615 8.40718 3945 ft 179 kts 137°
2026-05-07 15:45 47.56733 8.41929 3716 ft 166 kts 137°
2026-05-07 15:45 47.55914 8.43052 3503 ft 157 kts 137°
2026-05-07 15:45 47.55124 8.44137 3309 ft 154 kts 137°
2026-05-07 15:46 47.53559 8.46282 2898 ft 152 kts 137°